SCP
0 0 0 0 0 0 0 0 0 0 0 0 0 0 1 1 1 1 1 1 2 2 2 2 2 2 2 2 2 2 2 2 1 1 1 1 1 1 1 1 1 1 0 0
0 0 0 0 0 0 0 0 0 0 0 0 0 1 1 1 1 1 1 1 2 2 2 2 2 2 2 2 2 2 2 2 2 2 1 1 1 1 1 1 1 1 1 0
0 0 0 0 0 0 0 0 0 0 0 0 1 1 1 1 1 1 1 2 2 2 2 2 3 3 3 2 2 2 2 2 2 2 2 1 1 1 1 1 1 1 1 1
0 0 0 0 0 0 0 0 0 0 0 0 1 1 1 1 1 1 1 2 2 2 2 2 2 3 2 2 2 2 2 2 2 2 2 2 2 2 2 1 1 1 1 1
0 0 0 0 0 0 0 0 0 0 0 0 1 1 1 1 1 1 2 2 2 2 2 2 2 2 2 2 2 2 3 3 3 3 2 2 2 2 2 2 2 1 1 1
0 0 0 0 0 0 0 0 0 0 0 0 1 1 1 1 2 2 2 2 2 2 2 2 2 3 2 2 2 2 3 3 3 3 3 3 2 2 2 2 2 1 1 1
0 0 0 0 0 0 0 0 0 0 0 0 1 1 1 2 2 2 2 2 2 2 2 3 3 3 3 3 3 3 3 3 3 3 3 3 3 3 2 2 2 2 1 1
0 0 0 0 0 0 1 1 1 0 0 0 1 1 1 2 2 2 2 2 2 2 3 3 3 3 3 3 3 3 3 3 3 3 3 2 3 3 2 2 2 2 1 1
0 0 0 0 0 1 1 1 1 0 0 0 1 1 1 2 2 2 2 2 2 2 3 3 3 3 4 4 4 4 4 4 3 3 3 2 2 2 2 2 2 2 2 1
1 1 1 1 1 1 1 1 1 0 0 0 1 1 2 2 2 3 3 3 3 3 3 3 3 3 4 4 4 4 4 3 3 3 3 3 2 2 2 2 2 2 1 1
1 1 1 1 1 1 1 1 1 1 1 1 1 2 2 3 3 3 3 3 3 3 3 3 4 4 4 4 4 4 4 3 3 2 2 2 2 2 1 1 1 1 1 1
1 1 1 1 1 1 1 1 1 1 1 1 2 2 2 3 3 3 3 3 3 3 3 3 4 4 4 4 4 3 3 3 2 2 2 2 2 1 1 1 0 0 0 0
1 1 1 1 1 1 1 1 1 1 1 2 2 2 2 2 3 3 3 3 3 3 3 3 3 3 3 3 3 3 2 2 2 2 2 1 1 1 1 0 0 0 0 0
1 1 1 1 1 1 1 1 1 1 1 1 2 2 2 2 2 2 2 2 2 2 2 3 3 3 3 3 3 2 2 2 1 1 1 1 1 1 1 0 0 0 0 0
0 1 1 1 1 1 1 1 1 1 1 1 1 2 2 2 2 2 2 2 2 2 2 2 2 2 2 2 2 2 1 1 1 1 1 1 1 1 1 1 0 0 0 0
0 0 0 0 1 1 1 1 1 1 1 1 1 1 2 2 2 2 1 1 1 1 1 2 2 2 2 2 2 1 1 1 1 1 1 1 1 1 1 1 0 0 0 0
0 0 0 0 0 1 1 1 1 1 1 1 1 1 1 1 1 1 1 1 1 1 1 1 1 1 1 1 1 1 1 1 1 1 1 1 1 1 0 0 0 0 0 0
0 0 0 0 0 0 1 1 1 1 1 1 1 1 1 1 1 1 1 1 1 1 1 1 1 1 1 1 1 1 1 1 1 1 1 0 0 0 0 0 0 0 0 0
0 0 0 0 0 0 0 1 1 1 1 1 1 1 1 1 1 1 1 1 1 1 1 1 1 1 1 1 1 1 1 1 1 1 1 0 0 0 0 0 0 0 0 0
0 0 0 0 0 0 0 1 1 1 1 1 1 1 1 1 1 1 1 1 1 1 1 1 1 1 1 1 0 0 0 0 0 0 0 0 0 0 0 0 0 0 0 0
0 0 0 0 0 0 0 0 1 1 1 1 1 1 1 1 1 1 1 1 1 1 1 1 1 1 1 0 0 0 0 0 0 0 0 0 0 0 0 0 0 0 0 0
0 0 0 0 0 1 1 0 0 1 1 1 1 1 1 1 1 1 1 1 1 1 1 1 0 0 0 0 0 0 0 0 0 0 0 0 0 0 0 0 0 0 0 0
0 0 0 0 0 1 1 1 1 1 1 1 1 1 1 1 1 1 1 1 1 0 0 0 0 0 0 0 0 0 0 0 0 0 0 0 0 0 0 0 0 0 0 0
0 0 0 0 0 0 1 1 1 1 1 1 1 1 1 1 1 1 1 0 0 0 0 0 0 0 0 0 0 0 0 0 0 0 0 0 0 0 0 0 0 0 0 0
0 0 0 0 0 0 0 0 0 1 1 0 0 0 0 0 0 0 0 0 0 0 0 0 0 0 0 0 0 0 0 0 0 0 0 0 0 0 0 0 0 0 0 0
0 0 0 0 0 0 0 0 0 0 0 0 0 0 0 0 0 0 0 0 0 0 0 0 0 0 0 0 0 0 0 0 0 0 0 0 0 0 0 0 0 0 0 0
0 0 0 0 0 0 0 0 0 0 0 0 0 0 0 0 0 0 0 0 0 0 0 0 0 0 0 0 0 0 0 0 0 0 0 0 0 0 0 0 0 0 0 0
Wind_Speed
15 14 13 13 14 14 14 13 12 9 8 7 5 4 6 6 7 6 5 6 7 8 8 8 8 8 8 8 8 8 8 7 7 7 6 5 5 5 5 5 5 3 3 3
15 16 16 16 15 15 15 13 11 10 10 8 4 4 4 5 5 6 5 5 7 7 7 8 8 8 7 7 7 7 8 7 7 7 7 6 5 5 5 5 4 4 3 3
13 15 15 17 15 14 13 12 11 11 8 6 3 2 4 5 5 4 4 4 4 5 6 6 7 7 7 7 7 7 7 7 7 7 7 7 7 6 6 5 5 4 4 4
12 13 17 12 10 12 12 12 10 9 7 6 4 2 3 4 5 5 4 5 5 5 5 5 6 7 6 7 7 7 7 7 7 7 7 7 6 6 5 5 4 4 4 4
10 13 15 12 12 12 11 11 9 7 5 5 5 4 3 3 4 5 4 4 4 5 5 5 5 6 6 6 7 7 7 7 7 7 7 6 6 6 5 5 4 4 4 3
10 13 14 9 7 7 9 10 7 5 4 4 3 4 2 3 3 3 4 3 3 4 4 5 5 6 6 7 7 8 7 7 7 7 7 7 6 6 5 5 4 4 4 4
14 14 11 6 4 5 9 4 2 3 3 2 2 2 2 3 4 4 3 2 2 3 3 4 5 6 6 6 5 5 6 7 7 6 6 6 6 5 5 5 4 4 4 4
12 13 10 2 5 4 2 3 2 3 2 1 1 1 1 4 4 3 2 2 2 2 3 4 5 6 6 5 5 5 6 7 7 7 6 6 6 5 5 5 5 5 4 4
6 6 1 3 2 2 2 1 2 3 3 2 2 1 1 3 3 3 2 1 2 2 4 4 5 6 6 5 6 6 6 6 6 6 5 6 6 6 5 5 5 5 5 4
5 4 2 2 3 2 1 2 2 3 3 2 2 1 1 2 2 2 1 1 2 3 4 4 4 5 5 6 6 6 6 6 6 6 6 5 5 5 5 4 5 5 4 4
6 5 4 5 4 4 3 3 3 5 4 2 1 1 1 1 2 2 1 1 1 2 3 4 4 4 6 6 6 7 6 6 6 6 6 5 3 2 3 2 2 3 3 3
5 4 4 5 4 4 4 4 4 4 4 3 2 1 0 1 2 2 2 1 2 3 3 4 4 5 5 6 6 6 6 6 5 5 5 5 5 4 6 4 5 5 4 4
5 5 5 5 5 5 4 4 4 4 3 2 2 1 1 1 2 2 3 3 3 3 4 4 5 5 5 5 6 6 5 5 4 4 5 5 5 5 4 4 6 6 5 6
4 4 3 3 4 4 5 4 3 3 2 1 1 2 2 2 2 3 3 3 3 3 4 4 5 4 4 4 5 5 5 5 5 4 5 5 5 5 5 5 5 3 3 5
5 5 5 4 4 4 4 3 3 3 2 1 1 2 2 2 2 2 2 3 3 4 4 4 4 4 3 4 5 6 5 5 4 4 4 4 4 4 4 5 5 5 4 3
5 5 5 4 4 3 3 3 3 3 2 2 1 1 1 1 2 2 2 3 3 3 3 4 4 4 3 4 4 4 4 5 5 4 4 4 4 5 5 5 5 5 6 5
5 5 4 4 3 2 3 3 3 2 2 2 1 1 1 2 2 2 2 2 2 2 3 3 4 4 4 3 4 4 4 5 6 5 5 5 5 4 4 4 4 5 5 6
5 5 4 3 3 2 3 2 2 1 1 1 0 1 2 2 2 2 2 2 2 2 2 3 3 3 4 3 3 3 4 4 4 4 4 4 4 4 4 4 4 5 4 6
5 3 3 3 2 2 2 2 2 2 1 1 1 0 1 1 2 2 2 2 3 3 3 3 3 3 3 3 2 2 3 4 4 3 3 4 4 4 4 4 5 5 5 6
2 2 2 2 2 2 1 1 1 2 1 1 1 0 1 1 2 2 2 2 2 1 3 3 4 3 3 3 3 3 4 4 4 4 4 4 5 4 4 4 5 5 5 6
1 2 2 2 2 2 2 2 2 2 2 2 1 1 1 1 1 2 2 2 1 2 3 4 4 3 3 2 3 3 3 4 4 4 4 5 5 5 5 4 4 4 4 5
1 2 2 2 2 2 2 2 2 3 2 2 2 2 2 1 2 2 2 2 2 2 2 3 2 2 3 3 3 3 3 4 3 3 4 4 5 5 5 4 4 4 4 4
1 2 2 2 3 3 3 3 3 3 2 2 2 3 3 2 2 2 2 1 1 2 2 2 2 5 4 4 3 3 4 4 4 3 3 3 3 3 4 4 3 4 4 4
2 2 2 2 3 4 4 4 3 3 2 2 3 3 3 2 2 2 1 2 3 3 2 2 5 5 5 3 3 3 4 4 3 3 3 3 3 3 3 4 4 3 4 5
3 3 3 3 3 3 3 4 4 3 3 3 4 3 3 2 2 1 1 3 4 3 2 3 5 6 5 3 3 3 3 3 2 2 2 3 3 3 3 3 3 3 4 4
3 3 3 3 3 3 4 4 3 3 3 3 3 2 2 2 1 1 1 2 3 3 2 3 4 4 4 3 3 3 3 3 3 3 2 2 2 2 2 3 4 3 4 4
4 3 3 3 3 3 3 2 2 3 3 2 2 2 1 0 0 1 1 2 2 2 2 2 2 2 3 2 2 3 2 2 2 2 2 2 2 3 3 4 3 3 4 4
Wind_Direction
263 261 256 248 237 241 244 252 260 262 254 243 221 184 167 156 152 153 152 138 131 138 148 148 150 151 157 163 163 161 159 164 164 162 156 154 151 150 147 146 144 131 125 119
262 260 257 256 247 246 245 246 247 251 259 260 243 186 152 143 152 155 153 147 139 138 143 150 154 157 160 160 159 156 159 163 159 158 156 157 154 152 146 142 137 134 129 123
259 259 256 251 244 246 250 249 249 250 252 257 245 194 153 154 162 163 151 139 143 149 150 153 154 155 160 158 156 158 160 160 159 159 160 162 162 156 152 151 149 143 138 133
255 258 249 246 250 247 250 251 255 255 252 242 227 201 181 180 169 167 159 155 157 160 155 158 159 154 159 162 159 160 163 164 161 163 166 161 157 158 154 153 154 150 144 143
251 252 252 245 243 247 249 250 251 258 259 239 227 191 193 166 151 150 150 142 146 156 163 160 158 157 161 165 166 164 167 166 162 162 163 160 162 161 157 154 153 153 150 145
245 252 253 245 237 251 252 244 240 247 262 255 241 228 176 114 137 127 110 119 137 161 164 160 158 157 165 174 173 172 170 163 157 158 164 165 163 156 152 151 154 151 147 143
238 247 253 261 262 259 245 244 313 256 254 240 250 304 90 105 100 101 112 124 136 145 154 162 160 155 167 171 175 168 159 154 154 153 158 158 152 151 150 149 148 151 148 147
233 243 244 262 250 255 15 30 351 336 316 334 327 69 108 119 118 119 126 144 157 155 158 158 159 158 164 166 163 157 151 154 153 155 166 162 153 155 158 159 159 164 163 163
229 241 300 12 36 63 78 42 336 320 318 334 312 277 100 113 122 136 150 163 178 178 169 161 160 162 167 158 150 147 148 154 154 155 155 157 160 164 169 173 178 177 174 171
246 230 255 317 325 320 354 314 306 297 297 295 277 305 55 109 113 115 131 188 186 178 169 157 159 163 155 146 146 149 155 155 157 159 166 165 166 173 179 184 186 180 179 173
263 259 273 269 274 276 281 289 292 303 307 296 332 357 42 97 130 135 133 209 190 177 165 154 146 147 144 144 151 157 159 161 168 170 164 158 148 142 171 148 175 177 179 172
264 284 287 287 292 286 284 285 290 296 309 327 333 353 142 169 148 154 174 202 199 185 177 163 154 147 149 153 158 161 167 171 174 170 162 162 150 117 53 80 97 109 120 134
295 296 288 282 296 307 293 282 285 286 277 291 316 295 218 177 168 179 180 189 204 189 169 159 156 155 156 159 164 172 175 173 176 170 168 171 166 160 140 89 77 87 104 123
298 293 283 280 286 297 296 282 292 297 291 267 223 239 219 192 189 195 194 186 176 173 161 155 157 158 159 162 168 173 180 179 181 173 177 182 179 177 169 167 159 132 108 130
278 274 261 265 274 283 286 267 258 262 266 253 208 226 203 187 182 183 168 163 150 153 156 156 156 157 162 170 173 179 185 185 182 176 184 186 181 185 183 174 166 155 144 140
275 266 252 240 244 259 267 259 249 253 257 250 217 205 198 157 155 160 160 153 153 163 167 164 164 168 172 178 177 181 182 185 189 190 192 186 187 191 186 178 172 169 171 166
263 265 263 256 259 263 270 268 264 257 248 252 191 175 166 152 159 163 162 156 163 165 166 167 171 168 168 178 192 197 190 183 188 198 198 193 196 202 191 184 180 178 177 172
259 262 265 270 260 262 280 290 289 286 270 255 247 180 170 172 187 177 167 152 153 161 164 165 161 161 173 191 199 205 199 196 199 203 197 192 197 200 194 191 188 184 175 171
240 244 264 276 272 279 295 302 308 317 293 295 288 226 158 165 178 174 161 167 182 187 165 153 154 177 185 177 205 214 211 207 202 199 199 190 201 207 206 201 197 194 185 175
230 222 246 271 284 279 281 287 278 290 295 274 263 241 199 193 189 188 191 205 211 191 147 150 170 197 201 181 211 221 215 211 207 199 201 206 208 206 209 210 205 200 191 183
242 250 249 263 290 300 291 282 276 269 274 263 247 254 250 237 214 210 215 228 182 156 165 174 198 208 200 187 220 231 226 223 215 207 209 209 210 208 206 204 208 205 191 183
231 265 267 289 298 300 301 284 260 259 256 247 246 243 239 240 234 229 226 227 199 160 187 215 204 157 164 192 222 228 229 231 224 215 210 210 210 208 207 207 205 197 179 180
251 256 262 281 298 302 302 300 293 277 258 249 247 244 241 243 238 232 233 214 189 166 209 225 143 142 165 207 219 224 226 225 221 217 216 216 211 207 212 214 204 189 177 183
264 260 264 270 278 277 278 283 285 279 267 249 239 238 236 230 226 235 220 152 145 161 218 148 145 164 189 212 215 218 221 220 222 216 215 220 218 217 216 209 200 191 186 188
256 254 253 250 250 250 259 268 272 264 259 253 242 227 229 234 233 219 164 147 149 170 195 168 172 186 204 223 225 222 220 215 217 209 213 226 225 218 215 207 200 194 197 197
258 251 243 237 244 249 244 239 241 246 241 232 232 225 214 205 198 175 164 180 170 174 192 185 179 191 209 216 213 209 204 198 200 210 216 215 221 223 220 214 207 201 202 206
249 244 235 234 239 242 243 241 241 251 253 241 233 237 229 170 196 249 220 194 184 186 179 185 198 204 212 211 209 213 205 199 195 199 203 211 215 212 204 206 209 204 202 203